Cloud_Cover
0 0 0 0 0 0 0 1 5 5 5 1 0 0 0 0 0 0 0 0 0 0
0 0 0 0 0 0 0 1 5 5 5 5 5 0 0 0 5 5 1 0 1 0
0 0 0 0 0 5 4 5 5 5 5 5 5 4 0 0 5 5 5 4 0 3
0 0 3 5 5 5 5 5 5 5 5 5 5 5 5 0 4 5 5 5 0 2
5 5 5 5 5 58 67 73 99 76 5 36 94 100 65 5 5 5 5 5 3 0
5 6 10 15 63 74 81 93 100 99 99 95 100 100 100 99 5 5 5 5 5 3
35 81 88 83 78 89 89 93 89 100 100 100 100 100 100 98 100 76 5 5 5 5
77 93 90 100 100 100 100 100 100 100 100 100 100 97 100 100 100 100 85 53 5 5
8 72 80 87 100 100 88 100 88 99 100 100 100 100 86 100 100 100 100 64 20 5
100 99 95 100 100 100 100 100 100 100 100 100 100 100 96 100 100 95 100 98 98 59
100 79 100 100 100 100 100 100 100 100 100 100 100 100 93 100 100 100 100 100 94 46
100 100 100 100 100 100 100 100 90 98 100 100 100 100 95 93 90 98 89 100 100 99
100 100 100 100 100 100 97 100 92 100 100 100 100 100 100 100 100 52 67 82 22 5
100 100 100 100 100 100 97 91 87 97 98 100 99 74 100 95 85 68 71 26 10 12